sat.trackr.live / text

‹ back to catalog

STARLINK-37612

NORAD 69039 · 2026-101Q

PAYLOAD ACTIVE UNKNOWN

§ Identity

Operator
Country
US
Launch date
2026-05-06
Launch site
AFWTR
Launch vehicle
Mass (kg)
RCS (m²)

Purposes: comms

External: N2YO · Heavens-Above · Gunter

§ Orbital elements

Epoch: 2026-05-25T04:51:44.552736Z

Period
91.56 min
Inclination
97.2846°
Eccentricity
0.0001176
Mean motion
15.72746926 rev/d
Perigee alt
350.3 km
Apogee alt
351.8 km
Semi-major
6,729.2 km
B*
-7.1833e-3
RAAN
359.9779°
Arg perigee
89.2654°
Mean anomaly
270.8744°
Rev number
302

§ Raw data

STARLINK-376121 69039U 26101Q   26145.20259899 -.00871332  00000+0 -71833-2 0  99982 69039  97.2846 359.9779 0001176  89.2654 270.8744 15.72746926  3029

JSON: /api/v1/satellites/69039 · /tle

For live sub-satellite position, see the globe view (requires WebGL).

§ Visibility from observer

Set your observer location to see the next 7 days of passes ≥ 10°. The values pass through the URL so the page stays shareable.

No JS? Fill the form by hand. The geolocation button needs JavaScript.